Date,TemperatureHighF,TemperatureAvgF,TemperatureLowF,DewpointHighF,DewpointAvgF,DewpointLowF,HumidityHigh,HumidityAvg,HumidityLow,PressureMaxIn,PressureMinIn,WindSpeedMaxMPH,WindSpeedAvgMPH,GustSpeedMaxMPH,PrecipitationSumIn
2014-1-1,17.9,13.7,11.0,12.0,9.5,4.0,91,83,72,30.45,30.27,5,0,9,0.00
2014-1-2,12.1,8.5,1.2,10.0,6.0,-2.0,91,89,86,30.40,29.98,2,0,7,0.00
2014-1-3,1.9,-4.9,-10.2,-3.0,-9.8,-14.0,87,79,70,30.54,29.98,8,1,15,0.00
2014-1-4,20.9,8.0,-9.7,9.0,1.4,-14.0,87,75,57,30.53,30.27,5,1,11,0.01
2014-1-5,38.6,22.4,11.3,38.0,16.4,6.0,98,78,62,30.34,29.70,11,2,18,0.00
2014-1-6,48.4,31.2,5.9,47.0,26.1,-6.0,97,82,54,29.75,29.39,20,7,34,0.28
2014-1-7,5.9,2.7,-1.2,1.0,-6.2,-11.0,84,67,55,30.32,29.76,28,8,33,0.00
2014-1-8,16.0,8.4,1.1,6.0,0.7,-5.0,82,71,61,30.54,30.32,9,2,16,0.00
2014-1-9,21.5,15.4,11.2,16.0,11.0,5.0,91,83,70,30.71,30.51,4,1,10,0.01
2014-1-10,30.9,23.2,14.5,28.0,20.7,10.0,93,90,82,30.59,30.21,5,1,7,0.00
2014-1-11,47.8,37.9,28.7,48.0,37.1,27.0,99,97,86,30.21,29.30,14,2,24,0.59
2014-1-12,39.6,34.2,30.1,37.0,30.0,26.0,93,85,77,30.05,29.44,14,5,28,0.00
2014-1-13,44.4,37.0,28.1,39.0,29.1,25.0,89,74,57,30.08,29.81,13,2,21,0.11
2014-1-14,42.2,39.1,32.8,41.0,38.2,32.0,98,96,89,29.88,29.73,5,1,12,0.65
2014-1-15,38.7,32.5,28.5,36.0,31.3,28.0,98,95,88,30.01,29.88,10,1,12,0.02
2014-1-16,32.0,27.0,23.1,27.0,23.5,21.0,96,87,70,30.04,29.93,3,0,7,0.02
2014-1-17,36.7,28.7,22.6,27.0,24.0,21.0,93,83,63,29.96,29.90,6,1,12,0.00
2014-1-18,29.4,23.8,20.1,26.0,21.2,17.0,94,90,80,29.92,29.80,15,2,16,0.00
2014-1-19,28.2,22.3,16.3,26.0,18.4,14.0,94,85,69,29.88,29.55,16,3,20,0.00
2014-1-20,28.5,19.8,3.3,26.0,16.0,-4.0,96,85,69,30.06,29.57,10,2,19,0.00
2014-1-21,6.3,-1.6,-11.4,-3.0,-7.5,-15.0,86,77,63,30.19,30.06,4,0,9,0.00
2014-1-22,4.7,-7.7,-18.8,-7.0,-14.1,-23.0,83,74,58,30.16,30.01,8,1,16,0.00
2014-1-23,12.2,-0.1,-13.1,4.0,-5.8,-17.0,83,77,64,30.36,30.16,10,1,15,0.00
2014-1-24,14.9,5.1,-7.4,2.0,-3.3,-11.0,85,70,49,30.43,29.92,8,1,15,0.00
2014-1-25,21.7,18.2,11.5,18.0,9.9,1.0,89,71,50,29.92,29.38,12,2,23,0.00
2014-1-26,17.2,9.3,-1.1,13.0,1.0,-7.0,86,70,50,29.87,29.54,11,2,17,0.00
2014-1-27,29.2,18.5,6.6,26.0,9.8,-4.0,94,70,51,30.11,29.47,20,6,31,0.00
2014-1-28,11.4,4.9,-1.8,-4.0,-7.1,-11.0,75,58,45,30.39,30.11,12,2,19,0.00
2014-1-29,15.7,5.9,-8.0,3.0,-5.1,-13.0,78,62,42,30.32,30.11,12,2,22,0.00
2014-1-30,24.2,14.7,1.5,7.0,3.9,-3.0,84,64,46,30.48,30.06,13,2,18,0.00
2014-1-31,33.5,27.6,22.2,22.0,15.2,6.0,84,60,47,30.26,30.04,7,1,15,0.00
2014-2-1,37.4,29.7,21.5,32.0,24.9,17.0,96,82,61,30.34,29.97,10,2,19,0.09
2014-2-2,37.1,32.5,25.5,33.0,30.0,21.0,97,90,81,30.23,29.92,9,2,15,0.14
2014-2-3,27.5,23.9,18.0,21.0,18.5,14.0,86,80,69,30.41,30.21,12,1,14,0.01
2014-2-4,26.3,21.8,17.0,18.0,15.3,12.0,85,76,64,30.55,30.27,7,1,12,0.00
2014-2-5,25.9,22.3,12.0,24.0,19.7,9.0,94,89,78,30.35,29.76,13,2,16,0.00
2014-2-6,17.1,9.0,-2.7,9.0,4.6,-6.0,90,82,69,30.41,30.16,9,0,12,0.00
2014-2-7,19.8,12.7,4.0,11.0,6.3,0.0,92,76,56,30.35,30.27,10,1,18,0.00
2014-2-8,17.4,10.7,2.7,7.0,3.2,-3.0,81,72,64,30.41,30.27,9,1,12,0.00
2014-2-9,20.2,14.3,3.1,16.0,10.5,0.0,93,85,70,30.27,30.02,3,0,5,0.00
2014-2-10,21.5,15.4,10.3,15.0,11.1,8.0,92,83,61,30.32,30.06,10,2,17,0.00
2014-2-11,17.8,9.3,0.0,9.0,3.4,-3.0,89,78,57,30.59,30.32,11,1,18,0.00
2014-2-12,22.6,6.6,-9.6,6.0,-2.3,-13.0,88,69,49,30.66,30.38,10,1,14,0.00
2014-2-13,30.1,21.7,9.9,28.0,17.5,1.0,96,84,59,30.38,29.32,5,0,7,0.00
2014-2-14,28.4,24.1,18.1,25.0,21.1,16.0,93,88,80,29.81,29.24,10,3,23,0.00
2014-2-15,30.3,25.0,18.9,26.0,21.1,16.0,91,85,69,29.87,29.81,8,1,16,0.01
2014-2-16,20.3,13.6,5.6,17.0,8.5,3.0,90,80,64,30.22,29.86,12,3,19,0.00
2014-2-17,21.1,9.7,-1.3,3.0,-1.7,-7.0,88,62,41,30.52,30.23,9,2,13,0.00
2014-2-18,29.7,21.5,11.6,28.0,15.3,2.0,94,78,51,30.31,29.99,18,4,28,0.00
2014-2-19,33.9,27.3,14.1,33.0,24.9,12.0,95,90,84,30.09,29.73,10,2,19,0.00
2014-2-20,41.4,33.6,23.0,34.0,29.3,22.0,96,85,62,30.25,30.02,12,2,16,0.50
2014-2-21,39.9,34.8,30.3,39.0,33.8,30.0,98,96,93,30.02,29.62,17,4,25,1.05
2014-2-22,46.3,38.3,29.0,30.0,21.8,9.0,95,54,26,29.99,29.86,14,4,27,0.00
2014-2-23,42.5,36.7,26.2,29.0,24.9,19.0,78,63,40,30.00,29.88,12,2,18,0.00
2014-2-24,25.8,20.6,16.3,21.0,16.2,11.0,91,83,62,30.07,29.88,17,5,29,0.01
2014-2-25,19.4,14.9,9.4,14.0,10.3,7.0,90,82,67,30.08,29.97,12,2,21,0.00
2014-2-26,14.9,10.7,-2.7,12.0,1.2,-10.0,89,68,41,29.97,29.87,13,3,28,0.00
2014-2-27,20.7,9.9,-0.7,13.0,1.3,-8.0,87,69,42,30.10,29.62,24,5,36,0.00
2014-2-28,14.3,3.4,-7.2,1.0,-4.8,-11.0,85,70,43,30.48,30.11,8,1,14,0.00
2014-3-1,31.2,18.5,2.6,18.0,4.9,-6.0,69,56,45,30.46,30.14,7,1,10,0.00
2014-3-2,29.3,18.6,10.5,24.0,12.8,5.0,89,78,66,30.24,30.15,13,2,18,0.00
2014-3-3,14.3,6.0,-2.1,7.0,-2.8,-7.0,87,68,50,30.45,30.18,12,2,18,0.00
2014-3-4,15.8,9.2,-1.7,11.0,4.4,-5.0,90,81,60,30.48,30.33,2,0,7,0.00
2014-3-5,25.0,16.4,2.3,17.0,10.2,-3.0,91,77,58,30.64,30.32,8,1,12,0.01
2014-3-6,25.3,10.3,-7.2,7.0,-1.6,-11.0,86,62,33,30.75,30.51,6,1,11,0.00
2014-3-7,36.9,21.9,6.8,19.0,9.1,-3.0,74,59,45,30.51,30.01,9,2,12,0.01
2014-3-8,38.6,29.4,20.9,29.0,23.5,17.0,89,79,64,30.01,29.90,9,1,14,0.00
2014-3-9,29.2,23.8,17.1,19.0,13.6,9.0,87,66,45,30.11,29.91,14,2,21,0.00
2014-3-10,36.5,29.9,23.1,30.0,24.1,16.0,88,79,72,29.90,29.55,4,0,8,0.00
2014-3-11,48.8,40.7,34.1,34.0,32.2,29.0,89,73,52,29.75,29.55,9,2,18,0.00
2014-3-12,37.4,30.8,15.0,35.0,28.7,12.0,97,92,76,29.75,29.21,5,1,11,0.32
2014-3-13,14.7,9.8,5.1,11.0,4.3,0.0,87,79,61,30.14,29.47,12,3,21,0.00
2014-3-14,42.0,23.7,10.5,27.0,16.7,6.0,87,75,53,30.16,29.74,14,3,27,0.15
2014-3-15,42.6,36.2,24.7,36.0,29.6,16.0,93,78,52,30.09,29.69,13,4,30,0.58
2014-3-16,24.1,16.5,5.1,16.0,7.6,0.0,88,69,49,30.34,30.09,13,3,22,0.00
2014-3-17,28.1,13.8,1.9,4.0,1.0,-2.0,85,61,30,30.31,30.14,5,1,11,0.00
2014-3-18,39.5,24.3,11.4,14.0,6.7,1.0,67,49,32,30.35,30.23,7,2,18,0.00
2014-3-19,37.8,32.1,24.3,33.0,17.2,8.0,93,56,34,30.31,29.84,27,7,32,0.06
2014-3-20,37.9,34.0,29.9,36.0,31.8,28.0,98,92,75,29.87,29.72,17,5,23,0.16
2014-3-21,31.0,27.8,16.7,28.0,23.7,15.0,95,85,69,30.12,29.87,20,4,26,0.02
2014-3-22,39.6,30.3,16.6,35.0,25.0,15.0,93,80,72,30.12,29.73,17,4,30,0.03
2014-3-23,31.0,22.6,9.4,27.0,13.3,4.0,86,68,48,30.26,30.04,16,3,20,0.00
2014-3-24,23.9,15.2,4.7,15.0,7.0,1.0,91,72,44,30.32,30.20,12,2,18,0.00
2014-3-25,34.4,21.5,5.7,15.0,10.6,3.0,91,66,39,30.20,29.97,6,1,14,0.00
2014-3-26,24.7,20.7,14.7,19.0,9.8,2.0,88,64,42,30.28,29.96,15,3,29,0.00
2014-3-27,36.3,23.2,8.4,27.0,12.6,4.0,86,66,41,30.44,30.17,8,2,12,0.00
2014-3-28,45.0,37.2,31.4,44.0,35.3,28.0,96,93,82,30.20,29.89,11,3,23,0.71
2014-3-29,46.4,38.9,33.9,39.0,36.1,33.0,98,90,71,30.29,29.86,8,2,13,0.34
2014-3-30,39.7,36.3,31.2,38.0,34.5,30.0,98,93,83,29.95,29.76,9,2,16,0.41
2014-3-31,44.2,36.0,30.4,32.0,29.2,26.0,95,77,61,30.23,29.92,6,2,15,0.26
2014-4-1,48.9,37.5,24.2,35.0,29.2,23.0,95,74,53,30.22,29.99,8,1,13,0.00
2014-4-2,50.0,39.7,31.8,34.0,30.7,28.0,88,71,50,30.20,30.00,9,2,14,0.00
2014-4-3,43.7,35.0,25.7,29.0,26.9,24.0,93,74,52,30.26,30.12,9,1,14,0.00
2014-4-4,44.0,37.9,33.6,35.0,30.9,26.0,94,76,64,30.14,29.72,24,8,35,0.45
2014-4-5,38.8,35.3,32.3,36.0,30.9,25.0,97,84,66,30.13,29.73,24,5,28,0.10
2014-4-6,49.0,36.1,26.5,31.0,26.3,24.0,90,69,42,30.27,30.13,13,2,21,0.00
2014-4-7,51.9,40.7,31.2,37.0,30.1,25.0,92,68,37,30.23,29.68,18,4,28,0.19
2014-4-8,54.5,42.7,37.6,49.0,40.8,36.0,98,93,75,29.69,29.34,17,4,28,0.17
2014-4-9,45.6,38.1,28.9,37.0,28.2,17.0,98,71,34,30.05,29.70,10,2,17,0.01
2014-4-10,66.1,47.9,27.0,38.0,30.2,22.0,86,54,32,30.13,29.87,13,3,20,0.00
2014-4-11,59.8,50.8,36.8,48.0,41.5,33.0,96,73,41,30.07,29.88,12,2,18,0.06
2014-4-12,62.8,48.1,31.4,42.0,35.4,30.0,98,67,33,30.24,30.07,10,1,22,0.00
2014-4-13,81.4,61.4,43.5,55.0,45.1,31.0,94,59,34,30.18,29.85,10,3,17,0.15
2014-4-14,76.0,67.7,58.1,58.0,54.7,52.0,96,65,46,29.89,29.66,18,3,23,0.31
2014-4-15,63.0,45.4,26.1,58.0,42.9,23.0,96,91,80,30.02,29.49,20,4,23,0.62
2014-4-16,35.7,27.5,20.8,23.0,17.7,14.0,91,68,44,30.67,30.02,12,2,18,0.04
2014-4-17,47.3,35.3,23.1,26.0,21.8,18.0,86,60,37,30.79,30.59,15,5,23,0.00
2014-4-18,52.8,41.5,30.8,32.0,28.0,23.0,79,60,42,30.61,30.24,15,5,18,0.00
2014-4-19,52.6,42.1,33.8,40.0,33.4,27.0,95,74,42,30.48,30.25,7,2,13,0.05
2014-4-20,62.7,46.8,29.0,32.0,27.7,24.0,83,52,30,30.55,30.26,8,2,13,0.00
2014-4-21,74.2,57.5,43.2,40.0,33.6,27.0,66,43,22,30.26,29.81,6,1,10,0.00
2014-4-22,59.8,54.3,43.2,55.0,43.2,30.0,95,71,34,29.79,29.52,12,2,23,0.41
2014-4-23,42.9,40.0,34.6,40.0,36.5,31.0,97,87,78,29.91,29.60,14,2,18,0.02
2014-4-24,52.1,40.8,32.5,31.0,21.6,16.0,87,49,26,30.11,29.91,10,3,20,0.00
2014-4-25,60.4,44.7,27.2,43.0,26.0,21.0,92,54,25,30.11,29.74,14,3,23,0.23
2014-4-26,49.0,43.5,39.6,45.0,41.2,38.0,97,91,77,29.94,29.70,9,2,17,0.21
2014-4-27,50.1,42.6,37.8,41.0,37.8,35.0,97,84,64,30.23,29.94,6,2,16,0.02
2014-4-28,63.5,49.2,34.5,39.0,35.6,31.0,94,64,32,30.24,30.05,10,2,16,0.00
2014-4-29,48.8,45.2,39.2,41.0,39.1,37.0,92,79,68,30.38,30.14,25,11,34,0.53
2014-4-30,47.8,41.8,38.2,46.0,39.5,35.0,93,91,88,30.41,29.94,28,15,35,0.37
2014-5-1,61.3,50.9,42.7,56.0,49.3,42.0,99,94,81,29.93,29.75,20,2,30,0.25
2014-5-2,54.0,47.5,40.9,47.0,42.6,39.0,98,84,60,29.87,29.75,8,1,19,0.03
2014-5-3,59.9,51.1,46.3,48.0,44.8,41.0,93,80,52,29.87,29.70,10,2,18,0.12
2014-5-4,47.1,43.4,40.2,45.0,40.8,38.0,96,91,79,29.87,29.68,13,4,20,0.30
2014-5-5,58.6,47.0,39.5,43.0,38.7,34.0,96,75,48,30.00,29.87,12,2,18,0.00
2014-5-6,58.7,47.2,36.0,38.0,33.6,30.0,92,63,38,30.17,29.95,11,2,18,0.00
2014-5-7,64.1,48.3,31.8,36.0,30.5,26.0,86,55,26,30.31,30.17,11,1,14,0.00
2014-5-8,73.9,59.7,44.2,52.0,41.9,31.0,68,53,39,30.20,30.07,11,2,12,0.00
2014-5-9,72.6,64.3,55.6,62.0,56.4,39.0,91,76,42,30.15,29.91,16,6,22,0.21
2014-5-10,75.8,64.6,54.4,63.0,55.1,39.0,99,74,43,29.94,29.79,16,3,23,0.56
2014-5-11,68.9,57.2,45.6,45.0,42.7,39.0,87,61,35,30.09,29.92,16,3,19,0.00
2014-5-12,82.1,66.0,47.2,56.0,48.0,41.0,86,56,29,30.15,30.03,7,1,12,0.00
2014-5-13,71.8,65.3,60.6,55.0,50.7,47.0,67,60,52,30.19,30.06,22,4,22,0.00
2014-5-14,80.7,65.7,53.6,67.0,58.4,50.0,97,79,60,30.21,30.10,12,2,19,0.31
2014-5-15,82.4,70.0,62.9,67.0,62.1,58.0,89,77,50,30.15,29.99,17,5,23,0.00
2014-5-16,67.9,57.5,44.3,64.0,55.3,44.0,98,92,86,29.98,29.78,25,6,32,2.12
2014-5-17,55.7,46.7,39.2,44.0,40.4,37.0,99,81,54,30.19,29.93,14,2,20,0.00
2014-5-18,58.7,46.5,34.1,46.0,36.6,25.0,97,72,32,30.29,30.20,10,2,15,0.01
2014-5-19,66.2,50.4,34.8,47.0,39.6,33.0,96,70,38,30.27,30.14,14,2,18,0.00
2014-5-20,72.1,56.5,40.0,49.0,43.0,38.0,95,65,34,30.21,30.03,8,2,18,0.00
2014-5-21,74.6,61.0,45.0,58.0,48.5,42.0,92,67,39,30.04,29.87,8,1,18,0.00
2014-5-22,73.8,61.9,54.1,61.0,57.5,53.0,95,86,62,29.89,29.77,5,1,13,0.26
2014-5-23,54.1,52.0,50.1,53.0,51.0,49.0,98,96,90,30.02,29.86,8,1,15,0.28
2014-5-24,67.4,54.4,49.4,59.0,53.0,49.0,99,95,70,30.13,30.01,15,1,15,0.69
2014-5-25,74.0,59.3,45.4,57.0,51.1,45.0,99,78,46,30.14,30.05,12,1,17,0.01
2014-5-26,80.3,66.4,55.0,57.0,54.1,51.0,94,68,38,30.05,29.88,14,2,22,0.00
2014-5-27,80.7,69.5,58.5,65.0,60.2,55.0,92,73,57,29.89,29.75,9,1,17,0.00
2014-5-28,68.3,59.6,52.7,64.0,56.3,49.0,95,89,80,30.18,29.79,12,2,13,0.00
2014-5-29,66.7,57.5,48.7,55.0,48.8,44.0,91,74,51,30.24,30.12,9,2,15,0.00
2014-5-30,73.4,58.4,48.3,58.0,51.7,47.0,97,80,46,30.16,30.05,9,1,15,0.02
2014-5-31,72.2,59.0,44.1,51.0,46.7,42.0,98,68,37,30.32,30.16,5,1,10,0.01
2014-6-1,77.7,63.5,47.2,54.0,50.6,45.0,93,66,39,30.38,30.17,9,1,11,0.00
2014-6-2,86.1,70.9,56.7,63.0,57.4,51.0,80,64,44,30.20,29.96,8,2,10,0.00
2014-6-3,77.7,69.5,59.3,71.0,65.1,58.0,97,86,77,29.97,29.78,5,2,8,0.46
2014-6-4,70.3,61.1,51.1,60.0,54.2,49.0,98,80,54,29.91,29.78,8,1,18,0.00
2014-6-5,68.8,57.1,50.4,56.0,51.2,49.0,96,82,54,29.85,29.73,8,2,17,0.00
2014-6-6,68.7,58.4,51.1,56.0,52.9,50.0,98,83,61,30.02,29.85,10,2,15,0.02
2014-6-7,78.9,63.4,48.2,60.0,53.1,47.0,98,73,44,30.07,29.94,12,2,13,0.00
2014-6-8,81.9,67.8,49.2,61.0,54.2,48.0,97,66,38,30.00,29.84,8,1,8,0.00
2014-6-9,69.7,64.8,61.1,63.0,60.6,58.0,96,87,67,29.98,29.89,11,2,13,0.08
2014-6-10,78.8,67.8,61.5,67.0,62.6,59.0,95,84,62,30.02,29.94,8,1,14,0.00
2014-6-11,65.5,60.9,58.2,61.0,58.2,56.0,96,90,79,30.09,30.01,16,7,27,0.51
2014-6-12,64.6,61.1,57.3,63.0,59.7,56.0,98,95,89,30.05,29.93,16,5,22,0.67
2014-6-13,72.3,65.6,63.2,69.0,64.7,63.0,99,97,89,29.92,29.72,11,3,17,2.30
2014-6-14,63.1,55.0,51.4,63.0,52.2,47.0,99,90,78,30.09,29.81,10,2,17,0.01
2014-6-15,72.1,60.1,50.3,60.0,54.6,50.0,98,83,61,30.20,30.09,11,1,14,0.00
2014-6-16,79.2,65.4,49.0,64.0,57.6,49.0,99,78,55,30.19,30.02,5,1,10,0.00
2014-6-17,85.4,72.5,59.5,68.0,63.3,58.0,97,75,46,30.09,29.76,5,1,10,0.00
2014-6-18,70.6,65.0,61.4,65.0,62.6,61.0,98,92,82,30.04,29.86,12,2,15,0.04
2014-6-19,76.1,65.6,54.2,62.0,55.3,47.0,99,73,40,30.09,30.00,8,1,15,0.00
2014-6-20,70.9,59.4,46.7,51.0,48.4,45.0,96,70,44,30.09,29.99,8,1,15,0.00
2014-6-21,72.4,59.4,45.0,54.0,49.6,44.0,97,73,47,30.05,29.93,7,1,14,0.00
2014-6-22,77.0,63.7,47.8,58.0,52.5,47.0,97,70,45,30.04,29.98,9,1,13,0.00
2014-6-23,82.2,68.3,52.0,64.0,58.4,51.0,95,73,46,30.12,30.03,7,1,9,0.00
2014-6-24,82.1,71.7,64.3,70.0,64.9,60.0,96,79,67,30.06,29.91,5,1,11,0.28
2014-6-25,72.5,69.0,67.1,71.0,68.0,66.0,99,96,93,29.93,29.84,3,0,9,0.97
2014-6-26,82.0,71.0,62.3,68.0,64.4,59.0,99,82,52,30.03,29.85,4,0,9,0.00
2014-6-27,83.1,68.9,56.1,63.0,58.3,54.0,98,73,40,30.21,30.03,5,0,8,0.00
2014-6-28,84.2,71.0,56.7,65.0,58.5,53.0,92,67,36,30.29,30.20,7,1,8,0.00
2014-6-29,86.5,74.8,61.6,68.0,63.3,57.0,86,69,49,30.23,30.03,9,1,11,0.00
2014-6-30,85.6,74.6,65.4,74.0,68.2,63.0,96,81,65,30.05,29.87,4,1,9,0.19
2014-7-1,89.2,77.4,69.8,75.0,70.2,67.0,93,79,59,29.89,29.70,8,2,15,0.05
2014-7-2,84.0,75.8,67.3,75.0,71.4,67.0,98,86,69,29.93,29.75,8,1,11,1.08
2014-7-3,85.1,69.5,62.9,73.0,66.7,63.0,99,92,66,29.97,29.86,4,0,9,0.44
2014-7-4,72.0,64.1,56.2,64.0,59.0,54.0,99,85,60,30.10,29.96,9,2,13,0.09
2014-7-5,75.5,63.2,51.3,58.0,53.2,50.0,98,73,43,30.17,30.09,12,2,21,0.00
2014-7-6,79.5,66.0,52.8,62.0,55.5,50.0,92,71,47,30.08,29.87,10,1,13,0.00
2014-7-7,77.6,67.0,57.1,71.0,63.5,54.0,98,89,75,29.87,29.68,11,1,14,0.70
2014-7-8,84.9,73.6,66.7,73.0,68.7,63.0,97,85,63,29.76,29.52,6,1,16,0.32
2014-7-9,74.7,66.8,57.5,69.0,62.3,56.0,95,86,72,30.00,29.65,7,1,18,0.14
2014-7-10,73.1,62.2,52.5,58.0,53.6,50.0,99,76,47,30.21,30.01,6,1,13,0.00
2014-7-11,78.5,63.1,47.3,60.0,53.9,46.0,98,75,47,30.29,30.20,8,1,10,0.00
2014-7-12,84.7,69.7,55.0,73.0,62.7,54.0,95,80,53,30.24,30.04,5,1,7,0.00
2014-7-13,77.5,71.6,67.7,72.0,68.7,65.0,98,90,79,30.04,29.79,8,1,10,0.51
2014-7-14,82.1,72.2,64.9,72.0,68.0,65.0,99,88,62,29.90,29.80,3,0,7,0.00
2014-7-15,77.8,70.7,65.1,71.0,67.5,59.0,99,89,73,29.81,29.71,9,1,11,0.02
2014-7-16,73.4,65.0,55.7,60.0,57.5,54.0,97,78,57,29.95,29.78,7,1,14,0.00
2014-7-17,70.6,60.3,51.5,60.0,55.2,51.0,98,84,62,30.15,29.94,7,1,11,0.00
2014-7-18,76.4,62.3,48.2,60.0,54.3,47.0,98,78,47,30.28,30.15,7,1,11,0.00
2014-7-19,76.5,65.2,53.9,63.0,57.4,53.0,97,78,55,30.28,30.19,9,2,13,0.00
2014-7-20,78.5,68.7,60.1,64.0,59.1,54.0,94,73,46,30.20,30.11,10,1,12,0.00
2014-7-21,84.4,71.6,60.3,70.0,63.6,57.0,91,77,56,30.20,30.11,5,1,9,0.00
2014-7-22,88.1,75.2,65.4,72.0,68.3,64.0,95,80,57,30.15,29.95,3,0,7,0.00
2014-7-23,85.0,72.9,62.6,74.0,69.0,62.0,98,88,67,29.95,29.76,7,1,16,0.28
2014-7-24,73.1,63.2,52.6,61.0,56.0,51.0,98,80,52,30.01,29.88,7,1,13,0.01
2014-7-25,74.5,61.6,49.4,61.0,55.0,49.0,99,81,51,30.08,29.98,8,1,12,0.00
2014-7-26,77.0,65.3,54.1,64.0,58.3,53.0,98,80,54,29.99,29.86,4,0,9,0.04
2014-7-27,78.6,70.4,63.2,71.0,65.7,62.0,97,84,70,29.86,29.64,11,1,16,0.59
2014-7-28,68.0,61.9,57.9,65.0,60.4,55.0,99,93,90,29.75,29.49,5,1,14,1.07
2014-7-29,68.6,59.5,51.6,59.0,54.6,51.0,99,85,63,30.00,29.75,8,1,15,0.00
2014-7-30,74.3,60.2,47.1,61.0,54.5,46.0,99,83,55,30.06,29.98,9,1,15,0.06
2014-7-31,72.0,59.5,53.3,64.0,57.5,53.0,98,93,74,30.14,30.03,3,0,9,0.13
2014-8-1,82.2,69.0,56.9,70.0,62.4,56.0,97,81,54,30.20,30.14,6,1,7,0.00
2014-8-2,81.3,70.3,61.9,69.0,64.2,60.0,96,82,59,30.18,30.06,4,1,9,0.01
2014-8-3,79.8,68.2,60.0,69.0,63.7,59.0,98,86,59,30.12,30.02,5,1,8,0.13
2014-8-4,78.7,68.5,61.4,67.0,64.6,60.0,99,88,64,30.09,30.03,7,1,10,0.04
2014-8-5,77.4,67.8,58.8,69.0,63.4,58.0,99,86,71,30.06,29.96,7,1,14,0.00
2014-8-6,77.0,67.2,56.5,63.0,58.8,54.0,98,77,47,29.96,29.89,8,1,15,0.00
2014-8-7,73.5,61.9,54.2,60.0,56.2,53.0,98,83,54,30.06,29.94,8,1,12,0.00
2014-8-8,77.1,63.0,49.7,63.0,56.2,49.0,99,81,52,30.15,30.06,8,1,13,0.00
2014-8-9,78.5,65.4,52.5,64.0,58.4,52.0,99,81,53,30.19,30.11,8,1,12,0.01
2014-8-10,83.2,67.2,52.9,63.0,58.1,52.0,98,76,45,30.20,30.11,3,0,9,0.00
2014-8-11,83.4,69.9,57.0,66.0,61.0,56.0,96,75,50,30.15,30.03,7,1,13,0.00
2014-8-12,68.7,65.8,62.2,65.0,60.8,54.0,94,84,68,30.06,29.85,18,7,25,0.34
2014-8-13,71.0,66.0,60.6,68.0,62.6,55.0,98,89,74,29.84,29.71,18,4,23,0.82
2014-8-14,65.9,57.8,52.7,55.0,52.3,50.0,96,82,58,29.91,29.80,11,3,21,0.07
2014-8-15,60.3,54.8,51.4,56.0,53.1,50.0,97,93,81,29.95,29.88,7,1,16,0.10
2014-8-16,69.9,59.2,50.1,60.0,55.0,49.0,98,87,64,29.99,29.87,5,0,9,0.05
2014-8-17,72.0,62.4,56.3,61.0,58.2,55.0,99,87,63,29.95,29.84,6,1,13,0.05
2014-8-18,72.2,60.3,51.5,57.0,54.2,49.0,98,82,48,29.97,29.89,9,1,12,0.00
2014-8-19,79.5,61.6,45.6,62.0,53.3,45.0,99,77,39,29.97,29.90,4,0,8,0.00
2014-8-20,82.8,68.3,58.9,72.0,62.0,54.0,98,81,66,30.00,29.93,6,1,10,0.70
2014-8-21,76.0,67.9,65.5,71.0,66.6,65.0,99,96,84,30.02,29.95,7,1,12,0.50
2014-8-22,68.1,64.8,62.2,66.0,63.3,59.0,99,94,90,30.08,29.98,11,2,14,0.01
2014-8-23,69.8,64.3,58.2,64.0,60.7,57.0,95,88,73,30.16,30.07,10,2,14,0.00
2014-8-24,79.8,64.9,51.3,66.0,59.0,51.0,99,83,55,30.23,30.14,3,0,8,0.00
2014-8-25,83.6,67.4,54.6,67.0,60.9,54.0,99,82,52,30.24,30.14,4,0,7,0.00
2014-8-26,83.8,69.9,57.3,66.0,61.0,57.0,98,76,45,30.18,30.03,8,1,17,0.00
2014-8-27,75.7,68.6,60.2,70.0,63.6,58.0,95,84,62,30.03,29.94,8,1,18,0.00
2014-8-28,66.9,61.4,52.2,60.0,57.1,51.0,97,86,69,30.12,29.93,7,1,15,0.00
2014-8-29,72.6,59.6,47.1,58.0,53.3,47.0,98,82,53,30.25,30.12,5,0,8,0.00
2014-8-30,78.6,67.4,56.0,66.0,60.7,54.0,92,79,63,30.24,30.06,9,2,12,0.00
2014-8-31,73.0,70.4,67.8,72.0,68.7,65.0,98,94,84,30.07,29.94,5,0,10,0.17
2014-9-1,83.3,72.9,64.8,72.0,68.4,64.0,100,87,65,30.02,29.89,3,0,7,0.00
2014-9-2,85.6,73.7,62.5,73.0,69.2,62.0,98,86,64,29.89,29.72,7,1,13,0.97
2014-9-3,75.5,66.0,57.1,64.0,61.0,56.0,99,85,57,30.13,29.85,8,2,14,0.00
2014-9-4,82.7,67.2,54.5,71.0,62.1,54.0,98,85,57,30.18,30.09,5,0,9,0.00
2014-9-5,87.4,74.9,63.6,73.0,67.8,63.0,97,80,56,30.14,29.92,6,1,10,0.00
2014-9-6,76.1,68.0,60.6,70.0,64.8,59.0,97,90,73,29.99,29.85,12,2,19,0.05
2014-9-7,70.8,60.9,50.4,61.0,54.8,49.0,98,82,53,30.26,29.98,8,1,13,0.00
2014-9-8,72.3,60.6,47.1,58.0,53.1,46.0,99,78,57,30.38,30.25,14,3,16,0.00
2014-9-9,69.9,61.4,52.5,58.0,54.2,49.0,97,78,62,30.33,30.15,12,3,18,0.00
2014-9-10,73.9,64.6,56.4,64.0,58.8,55.0,94,82,69,30.15,29.90,10,1,15,0.00
2014-9-11,69.7,62.5,53.6,68.0,59.6,52.0,96,90,79,30.06,29.72,13,3,17,0.25
2014-9-12,58.1,51.2,44.1,52.0,46.6,43.0,97,85,65,30.29,30.06,9,1,16,0.01
2014-9-13,54.8,49.9,45.4,54.0,48.3,44.0,98,94,87,30.29,30.09,14,3,21,0.51
2014-9-14,58.8,47.5,41.8,49.0,44.2,41.0,97,89,62,30.36,30.25,6,1,11,0.00
2014-9-15,66.1,51.1,35.8,52.0,43.8,35.0,99,79,47,30.30,30.07,5,0,10,0.00
2014-9-16,62.9,53.8,44.8,56.0,50.0,44.0,98,88,61,30.06,30.01,10,1,15,0.28
2014-9-17,65.2,50.7,40.6,52.0,45.1,40.0,98,83,50,30.09,30.00,9,1,14,0.01
2014-9-18,62.3,50.6,41.5,54.0,47.0,39.0,99,88,71,30.24,30.01,7,1,10,0.00
2014-9-19,56.8,45.3,31.9,43.0,38.1,31.0,98,78,52,30.42,30.24,8,1,13,0.00
2014-9-20,70.1,59.7,46.7,61.0,54.6,43.0,90,83,74,30.30,30.00,8,2,16,0.00
2014-9-21,76.6,65.6,56.6,66.0,59.9,56.0,96,82,66,30.00,29.57,12,1,18,0.02
2014-9-22,58.1,50.9,46.8,56.0,47.6,42.0,97,88,75,30.20,29.63,15,3,26,0.05
2014-9-23,65.2,51.6,39.3,55.0,47.7,39.0,99,87,66,30.46,30.21,6,1,11,0.00
2014-9-24,71.5,57.9,46.6,57.0,51.5,46.0,98,81,57,30.61,30.46,7,2,12,0.00
2014-9-25,66.4,55.2,47.2,56.0,51.0,46.0,96,86,68,30.53,30.32,5,0,8,0.00
2014-9-26,74.2,58.3,46.1,62.0,53.7,45.0,99,86,59,30.35,30.24,6,1,11,0.00
2014-9-27,77.8,61.6,50.7,64.0,56.9,50.0,99,86,58,30.31,30.22,4,0,9,0.01
2014-9-28,76.9,60.9,49.7,61.0,55.0,49.0,99,84,42,30.23,30.06,6,0,11,0.01
2014-9-29,74.2,60.4,49.3,62.0,55.6,49.0,98,86,59,30.05,29.93,3,0,8,0.00
2014-9-30,70.9,61.5,54.0,62.0,57.9,53.0,99,88,72,30.02,29.93,10,2,12,0.00
2014-10-1,65.3,58.7,52.6,59.0,56.0,51.0,98,91,77,30.14,30.02,5,0,10,0.00
2014-10-2,71.5,60.5,53.2,59.0,55.6,52.0,98,85,62,30.20,30.10,8,1,13,0.00
2014-10-3,70.1,61.0,54.6,58.0,53.8,50.0,94,79,56,30.11,29.75,14,4,25,0.03
2014-10-4,56.9,52.6,44.4,56.0,51.3,43.0,98,95,82,29.74,29.56,17,4,24,0.68
2014-10-5,53.0,44.9,34.2,44.0,39.7,33.0,97,83,65,29.97,29.71,5,1,12,0.00
2014-10-6,65.9,52.0,37.8,49.0,41.9,35.0,93,70,48,30.02,29.93,15,3,18,0.00
2014-10-7,68.6,60.4,55.1,54.0,49.2,45.0,87,68,46,29.97,29.80,11,3,18,0.01
2014-10-8,62.2,55.2,48.9,54.0,47.7,35.0,96,77,55,29.91,29.65,10,4,22,0.34
2014-10-9,58.4,49.4,42.3,41.0,38.6,36.0,89,68,45,30.06,29.89,17,3,24,0.00
2014-10-10,54.4,45.7,37.5,45.0,40.8,36.0,97,84,64,30.17,30.06,4,1,13,0.00
2014-10-11,56.5,44.4,35.6,43.0,38.8,34.0,97,82,56,30.25,30.13,10,1,15,0.00
2014-10-12,60.3,44.4,31.0,42.0,36.3,30.0,98,76,45,30.37,30.25,6,1,9,0.00
2014-10-13,62.1,51.5,40.6,55.0,46.0,36.0,86,81,71,30.32,30.20,11,1,13,0.00
2014-10-14,78.5,66.6,56.6,63.0,59.1,55.0,93,78,58,30.22,30.02,13,3,16,0.00
2014-10-15,73.7,67.2,63.5,66.0,63.3,61.0,99,87,74,30.02,29.82,14,5,22,1.32
2014-10-16,70.7,64.7,55.9,67.0,62.9,55.0,99,94,71,29.81,29.59,13,2,21,0.74
2014-10-17,65.4,57.6,50.8,55.0,52.4,50.0,99,83,65,29.68,29.58,7,1,13,0.01
2014-10-18,60.3,52.4,43.4,53.0,49.9,41.0,97,91,70,29.78,29.53,9,2,18,0.23
2014-10-19,43.2,38.9,32.4,41.0,33.3,29.0,93,81,64,30.09,29.79,10,1,17,0.00
2014-10-20,53.7,42.5,30.0,42.0,36.5,29.0,97,80,56,30.08,29.94,6,1,10,0.00
2014-10-21,51.8,48.0,43.8,49.0,45.2,41.0,96,90,77,30.06,29.91,5,0,12,0.03
2014-10-22,55.8,49.4,45.6,50.0,45.9,43.0,97,88,75,30.16,30.01,5,0,11,0.00
2014-10-23,51.6,46.7,44.1,46.0,43.4,42.0,96,88,76,30.01,29.89,4,1,8,0.04
2014-10-24,57.8,48.1,40.9,46.0,43.1,39.0,95,84,60,29.94,29.86,6,1,10,0.00
2014-10-25,61.7,50.2,42.1,50.0,45.9,40.0,96,86,61,29.92,29.55,8,1,27,0.02
2014-10-26,48.8,46.0,42.5,48.0,42.8,41.0,97,89,77,29.84,29.55,12,2,20,0.11
2014-10-27,54.5,47.0,41.1,44.0,40.9,38.0,95,80,60,30.06,29.84,10,2,14,0.00
2014-10-28,68.8,53.9,43.3,54.0,47.0,39.0,92,78,60,30.03,29.84,7,1,10,0.02
2014-10-29,59.7,52.0,45.1,59.0,47.5,40.0,97,85,69,29.95,29.85,10,1,13,0.05
2014-10-30,47.3,42.2,33.2,43.0,39.3,32.0,97,89,75,30.09,29.95,7,1,12,0.04
2014-10-31,48.1,38.7,29.6,39.0,33.7,29.0,98,84,65,30.10,30.00,5,1,11,0.01
2014-11-1,46.8,40.4,34.6,36.0,33.5,32.0,93,77,58,30.05,29.97,4,1,8,0.01
2014-11-2,42.1,35.8,29.3,33.0,25.4,19.0,94,67,43,30.13,30.03,10,3,16,0.00
2014-11-3,52.6,42.1,31.2,39.0,32.2,23.0,83,69,44,30.16,30.09,12,2,20,0.00
2014-11-4,64.1,54.2,44.9,41.0,34.7,28.0,72,50,30,30.14,29.93,7,1,17,0.00
2014-11-5,60.6,49.0,34.4,48.0,38.1,27.0,93,70,29,30.15,29.91,16,2,25,0.02
2014-11-6,48.3,40.4,34.1,41.0,37.5,32.0,97,90,67,30.14,29.70,7,1,12,0.21
2014-11-7,39.9,36.0,32.6,37.0,32.0,24.0,96,85,72,29.97,29.68,8,2,14,0.00
2014-11-8,41.9,36.4,32.0,31.0,28.2,24.0,86,72,63,30.02,29.85,4,1,10,0.00
2014-11-9,44.3,39.8,34.4,38.0,32.5,30.0,92,76,61,30.01,29.85,9,2,14,0.00
2014-11-10,55.1,44.6,35.4,38.0,34.3,30.0,86,68,49,30.18,30.01,5,1,9,0.00
2014-11-11,64.7,52.3,40.5,50.0,41.9,34.0,86,69,48,30.09,29.87,8,2,14,0.00
2014-11-12,54.1,44.1,35.0,50.0,38.7,26.0,98,82,64,30.15,29.83,10,2,18,0.09
2014-11-13,39.2,34.1,30.4,30.0,27.9,26.0,96,79,59,30.16,30.05,8,1,12,0.00
2014-11-14,32.6,28.8,24.6,29.0,26.9,22.0,96,92,83,30.22,30.03,8,1,13,0.04
2014-11-15,33.7,27.0,20.9,26.0,22.4,18.0,94,83,64,30.39,30.23,6,1,19,0.02
2014-11-16,36.8,32.9,27.6,29.0,25.3,23.0,89,74,61,30.36,30.07,9,1,11,0.00
2014-11-17,35.8,33.7,31.9,35.0,32.0,28.0,98,94,73,30.06,29.52,11,1,22,0.98
2014-11-18,32.0,23.0,19.8,29.0,14.4,8.0,89,70,53,29.97,29.62,20,8,30,0.01
2014-11-19,27.9,22.5,17.9,20.0,12.1,9.0,87,65,49,30.23,29.97,12,3,21,0.00
2014-11-20,31.2,26.3,20.4,24.0,19.1,15.0,89,75,61,30.00,29.87,14,3,24,0.00
2014-11-21,26.4,21.9,19.0,20.0,16.3,13.0,91,79,62,30.49,30.00,10,2,19,0.00
2014-11-22,36.8,28.1,16.0,36.0,21.4,12.0,95,77,47,30.49,30.11,6,2,9,0.16
2014-11-23,49.8,44.0,37.2,43.0,40.1,36.0,96,86,74,30.17,29.95,7,2,12,0.12
2014-11-24,68.5,55.9,42.8,58.0,50.0,37.0,99,82,60,29.93,29.43,18,4,29,0.24
2014-11-25,50.6,41.5,34.7,49.0,33.1,29.0,96,74,52,30.24,29.66,11,2,16,0.00
2014-11-26,35.6,32.3,28.5,30.0,29.3,28.0,97,89,77,30.27,29.97,4,0,11,0.00
2014-11-27,29.1,27.0,25.7,27.0,25.8,25.0,96,95,92,30.11,29.98,4,0,6,0.01
2014-11-28,26.3,23.2,19.9,25.0,20.8,18.0,96,90,82,30.29,30.09,10,2,20,0.00
2014-11-29,28.9,23.3,16.5,24.0,18.8,15.0,93,83,69,30.36,30.12,11,3,17,0.00
2014-11-30,48.8,39.9,29.1,43.0,34.4,24.0,84,81,77,30.13,29.97,7,2,11,0.22
2014-12-1,49.4,39.0,27.3,47.0,34.3,18.0,96,83,67,30.60,29.97,14,3,21,0.02
2014-12-2,32.2,26.0,16.2,30.0,20.4,14.0,93,80,67,30.73,30.28,21,6,33,0.00
2014-12-3,41.0,35.6,32.2,38.0,33.5,27.0,97,92,80,30.27,29.95,17,4,28,0.06
2014-12-4,32.9,28.8,19.0,27.0,23.9,17.0,92,82,72,30.60,30.20,15,3,22,0.00
2014-12-5,32.7,26.4,18.1,31.0,22.4,16.0,94,85,73,30.65,30.39,7,1,13,0.00
2014-12-6,34.2,32.7,30.8,34.0,32.0,27.0,98,97,85,30.45,30.24,3,0,9,0.38
2014-12-7,30.5,24.6,16.7,26.0,17.4,13.0,88,75,55,30.77,30.46,10,1,15,0.00
2014-12-8,27.4,20.0,12.5,24.0,13.2,5.0,90,76,46,30.76,30.47,22,6,36,0.00
2014-12-9,34.7,32.3,27.6,34.0,30.7,24.0,98,94,85,30.45,29.89,14,2,16,0.35
2014-12-10,32.6,28.7,25.5,32.0,27.4,25.0,97,94,91,29.88,29.63,7,2,16,0.00
2014-12-11,28.5,25.7,24.6,27.0,24.6,23.0,96,95,94,29.92,29.63,6,1,15,0.00
2014-12-12,26.8,25.2,23.2,26.0,24.3,22.0,96,96,95,30.11,29.92,6,2,11,0.00
2014-12-13,32.1,28.2,25.5,32.0,27.1,24.0,98,96,91,30.10,29.97,3,0,11,0.00
2014-12-14,34.3,32.8,32.2,34.0,32.4,31.0,99,98,96,30.08,29.95,4,1,8,0.16
2014-12-15,34.1,32.4,31.3,32.0,30.6,29.0,97,93,89,30.17,30.07,7,1,9,0.08
2014-12-16,36.4,33.6,30.6,36.0,32.6,30.0,98,95,91,30.13,29.90,11,2,15,0.33
2014-12-17,39.8,35.2,31.3,40.0,34.7,31.0,99,98,96,29.92,29.84,10,2,17,0.13
2014-12-18,31.2,29.5,27.5,31.0,28.6,26.0,98,96,93,30.05,29.90,10,3,22,0.01
2014-12-19,27.4,24.2,20.7,26.0,22.1,19.0,96,91,87,30.30,30.04,7,2,14,0.00
2014-12-20,25.4,20.3,12.0,21.0,17.5,10.0,94,88,78,30.40,30.29,5,0,6,0.00
2014-12-21,31.8,26.8,23.3,25.0,23.2,21.0,93,86,77,30.43,30.37,2,0,5,0.02
2014-12-22,36.1,31.6,26.9,34.0,28.7,24.0,92,89,84,30.41,30.23,12,2,18,0.06
2014-12-23,40.3,38.2,35.1,39.0,36.7,34.0,95,94,92,30.23,30.09,18,5,23,0.29
2014-12-24,48.8,43.8,40.0,48.0,42.9,39.0,98,97,94,30.09,29.42,19,3,19,0.50
2014-12-25,52.7,42.6,37.9,53.0,37.1,30.0,99,81,70,30.12,29.39,19,5,32,0.13
2014-12-26,41.8,36.2,29.5,33.0,30.8,27.0,95,81,69,30.29,30.12,14,2,19,0.00
2014-12-27,48.3,39.7,28.5,40.0,34.7,27.0,94,82,71,30.29,29.96,7,1,10,0.00
2014-12-28,45.4,37.0,31.8,42.0,34.6,28.0,97,91,83,30.10,29.85,12,2,17,0.45
2014-12-29,32.0,27.2,17.4,28.0,21.2,13.0,92,79,64,30.34,30.10,6,1,13,0.00
2014-12-30,22.2,18.2,14.3,14.0,8.7,4.0,83,67,52,30.50,30.34,12,2,19,0.00
2014-12-31,20.8,18.5,14.4,18.0,10.9,7.0,91,73,58,30.38,30.08,11,3,20,0.01
2015-1-1,29.8,22.6,18.1,16.0,12.7,8.0,90,67,48,30.09,29.89,13,3,21,0.00
2015-1-2,27.3,24.2,21.2,25.0,19.7,17.0,92,83,74,30.52,30.19,7,2,18,0.00